TimeEST,TemperatureF,Dew PointF,Humidity,Sea Level PressureIn,VisibilityMPH,Wind Direction,Wind SpeedMPH,Gust SpeedMPH,PrecipitationIn,Events,Conditions,WindDirDegrees,DateUTC
12:05 AM,-9999,-9999,N/A,29.87,10.0,Calm,Calm,-,N/A,,Overcast,0,2013-02-05 05:05:00
12:50 AM,-9999,-9999,N/A,29.86,10.0,Calm,Calm,-,N/A,,Overcast,0,2013-02-05 05:50:00
1:10 AM,-9999,-9999,N/A,29.87,10.0,Calm,Calm,-,N/A,,Overcast,0,2013-02-05 06:10:00
1:30 AM,-9999,-9999,N/A,29.86,10.0,SE,3.5,-,N/A,,Overcast,130,2013-02-05 06:30:00
1:55 AM,-9999,-9999,N/A,29.86,10.0,Calm,Calm,-,N/A,,Overcast,0,2013-02-05 06:55:00
2:15 AM,-9999,-9999,N/A,29.86,10.0,SE,3.5,-,N/A,,Overcast,130,2013-02-05 07:15:00
2:35 AM,-9999,-9999,N/A,29.85,10.0,Calm,Calm,-,N/A,,Overcast,0,2013-02-05 07:35:00
2:55 AM,-9999,-9999,N/A,29.85,10.0,SE,4.6,-,N/A,,Mostly Cloudy,130,2013-02-05 07:55:00
3:20 AM,-9999,-9999,N/A,29.84,10.0,Calm,Calm,-,N/A,,Overcast,0,2013-02-05 08:20:00
4:00 AM,-9999,-9999,N/A,29.85,10.0,Calm,Calm,-,N/A,,Overcast,0,2013-02-05 09:00:00
4:25 AM,-9999,-9999,N/A,29.85,10.0,Calm,Calm,-,N/A,,Overcast,0,2013-02-05 09:25:00
4:40 AM,-9999,-9999,N/A,29.85,10.0,Calm,Calm,-,N/A,,Overcast,0,2013-02-05 09:40:00
5:25 AM,-9999,-9999,N/A,29.85,10.0,Calm,Calm,-,N/A,,Overcast,0,2013-02-05 10:25:00
5:50 AM,-9999,-9999,N/A,29.86,10.0,Calm,Calm,-,N/A,,Overcast,0,2013-02-05 10:50:00
6:10 AM,-9999,-9999,N/A,29.86,10.0,Calm,Calm,-,N/A,,Overcast,0,2013-02-05 11:10:00
6:45 AM,-9999,-9999,N/A,29.87,10.0,NE,3.5,-,N/A,,Overcast,40,2013-02-05 11:45:00
7:15 AM,-9999,-9999,N/A,29.87,10.0,NNE,4.6,-,N/A,,Overcast,20,2013-02-05 12:15:00
7:55 AM,-9999,-9999,N/A,29.89,10.0,Calm,Calm,-,N/A,,Overcast,0,2013-02-05 12:55:00
8:15 AM,-9999,-9999,N/A,29.89,10.0,Calm,Calm,-,N/A,,Overcast,0,2013-02-05 13:15:00
8:40 AM,-9999,-9999,N/A,29.89,10.0,Calm,Calm,-,N/A,,Overcast,0,2013-02-05 13:40:00
9:00 AM,-9999,-9999,N/A,29.91,10.0,Calm,Calm,-,N/A,,Overcast,0,2013-02-05 14:00:00
9:20 AM,-9999,-9999,N/A,29.91,10.0,Calm,Calm,-,N/A,,Overcast,0,2013-02-05 14:20:00
9:40 AM,-9999,-9999,N/A,29.91,10.0,Calm,Calm,-,N/A,,Overcast,0,2013-02-05 14:40:00
10:05 AM,-9999,-9999,N/A,29.91,10.0,Calm,Calm,-,N/A,,Overcast,0,2013-02-05 15:05:00
10:25 AM,-9999,-9999,N/A,29.91,10.0,East,3.5,-,N/A,,Overcast,80,2013-02-05 15:25:00
10:45 AM,-9999,-9999,N/A,29.92,10.0,Calm,Calm,-,N/A,,Overcast,0,2013-02-05 15:45:00
11:05 AM,-9999,-9999,N/A,29.91,7.0,Calm,Calm,-,N/A,,Overcast,0,2013-02-05 16:05:00
11:30 AM,-9999,-9999,N/A,29.90,7.0,Calm,Calm,-,N/A,,Overcast,0,2013-02-05 16:30:00
11:50 AM,-9999,-9999,N/A,29.90,10.0,Calm,Calm,-,N/A,,Overcast,0,2013-02-05 16:50:00
12:10 PM,-9999,-9999,N/A,29.88,10.0,NE,3.5,-,N/A,,Overcast,50,2013-02-05 17:10:00
12:35 PM,-9999,-9999,N/A,29.88,10.0,Calm,Calm,-,N/A,,Overcast,0,2013-02-05 17:35:00
12:55 PM,-9999,-9999,N/A,29.86,10.0,Calm,Calm,-,N/A,,Overcast,0,2013-02-05 17:55:00
1:15 PM,-9999,-9999,N/A,29.86,10.0,Calm,Calm,-,N/A,,Overcast,0,2013-02-05 18:15:00
2:00 PM,-9999,-9999,N/A,29.85,10.0,SE,3.5,-,N/A,,Overcast,140,2013-02-05 19:00:00
2:20 PM,-9999,-9999,N/A,29.84,10.0,East,3.5,-,N/A,,Mostly Cloudy,100,2013-02-05 19:20:00
2:40 PM,-9999,-9999,N/A,29.85,10.0,Calm,Calm,-,N/A,,Overcast,0,2013-02-05 19:40:00
3:00 PM,-9999,-9999,N/A,29.85,7.0,Calm,Calm,-,N/A,,Overcast,0,2013-02-05 20:00:00
3:25 PM,-9999,-9999,N/A,29.85,1.0,Calm,Calm,-,N/A,,Unknown,0,2013-02-05 20:25:00
4:07 PM,32.0,30.2,93,29.85,1.8,Calm,Calm,-,0.01,Snow,Light Snow,0,2013-02-05 21:07:00
4:28 PM,32.0,-9999,N/A,29.86,-9999.0,Calm,Calm,-,N/A,,Unknown,0,2013-02-05 21:28:00
4:29 PM,32.0,30.2,93,29.86,-9999.0,Calm,Calm,-,N/A,,Unknown,0,2013-02-05 21:29:00
4:50 PM,33.8,30.2,87,29.86,-9999.0,Calm,Calm,-,N/A,,Unknown,0,2013-02-05 21:50:00
5:05 PM,33.8,30.2,87,29.86,4.0,Calm,Calm,-,N/A,,Overcast,0,2013-02-05 22:05:00
5:30 PM,32.0,30.2,93,29.85,4.0,ESE,3.5,-,N/A,,Overcast,120,2013-02-05 22:30:00
5:50 PM,32.0,30.2,93,29.85,5.0,Calm,Calm,-,N/A,,Overcast,0,2013-02-05 22:50:00
6:15 PM,32.0,30.2,93,29.86,5.0,Calm,Calm,-,N/A,,Mostly Cloudy,0,2013-02-05 23:15:00
6:35 PM,30.2,28.4,93,29.86,5.0,Calm,Calm,-,N/A,,Overcast,0,2013-02-05 23:35:00
6:55 PM,30.2,28.4,93,29.86,5.0,Calm,Calm,-,N/A,,Scattered Clouds,0,2013-02-05 23:55:00
7:15 PM,30.2,28.4,93,29.87,5.0,Calm,Calm,-,N/A,,Clear,0,2013-02-06 00:15:00
7:40 PM,30.2,28.4,93,29.87,4.0,Calm,Calm,-,N/A,,Scattered Clouds,0,2013-02-06 00:40:00
8:00 PM,30.2,28.4,93,29.87,4.0,Calm,Calm,-,N/A,,Scattered Clouds,0,2013-02-06 01:00:00
8:40 PM,28.4,26.6,93,29.88,3.0,Calm,Calm,-,N/A,,Scattered Clouds,0,2013-02-06 01:40:00
9:25 PM,30.2,28.4,93,29.89,4.0,Calm,Calm,-,N/A,,Overcast,0,2013-02-06 02:25:00
9:45 PM,28.4,26.6,93,29.90,2.5,Calm,Calm,-,N/A,,Overcast,0,2013-02-06 02:45:00
10:05 PM,30.2,28.4,93,29.91,3.0,Calm,Calm,-,N/A,,Overcast,0,2013-02-06 03:05:00
10:30 PM,30.2,28.4,93,29.91,4.0,SSW,3.5,-,N/A,,Overcast,210,2013-02-06 03:30:00
10:50 PM,30.2,28.4,93,29.92,5.0,SW,4.6,-,N/A,,Scattered Clouds,230,2013-02-06 03:50:00
11:10 PM,30.2,28.4,93,29.91,5.0,WSW,4.6,-,N/A,,Mostly Cloudy,240,2013-02-06 04:10:00
11:30 PM,30.2,28.4,93,29.91,4.0,WSW,4.6,-,N/A,,Overcast,250,2013-02-06 04:30:00
11:55 PM,28.4,26.6,93,29.92,5.0,Calm,Calm,-,N/A,,Overcast,0,2013-02-06 04:55:00